Location: California Mobile Home Park
(33.7461°N, 117.9092°W)
Time: 05:47:38
(UTC+00:00)

Cosmos 1356 - Pass Details

Date: 29 June 2022
Orbit: 413 x 418 km, 81.1° (Epoch: 11 August)

Event Time Altitude Azimuth Distance (km) Brightness Sun altitude
Rises 12:15:17 0° 353° (N) 2,371 7.4 -5.9°
Reaches altitude 10° 12:17:20 10° 354° (N) 1,500 6.4 -5.6°
Maximum altitude 12:20:35 82° 80° (E) 425 3.4 -5.0°
Drops below altitude 10° 12:23:49 10° 170° (S) 1,482 5.8 -4.5°
Sets 12:25:50 0° 171° (S) 2,338 6.8 -4.1°
